Regional Weather Roundup
Issued by NWS

Home | Current Version | Previous Version | Graphics & Text | Print | Product List | Glossary On
Versions: 1 2 3 4 5 6 7 8 9 10 11 12 13 14 15 16 17 18 19 20 21 22 23 24 25 26 27 28 29 30 31 32 33 34 35 36 37 38 39 40 41 42 43 44 45 46 47 48 49 50
441
ASUS43 KFSD 221510
RWRSD

WEATHER ROUNDUP FOR SOUTH DAKOTA
NATIONAL WEATHER SERVICE SIOUX FALLS SD
900 AM CST SUN JAN 22 2017

NOTE: "FAIR" INDICATES FEW OR NO CLOUDS BELOW 12,000 FEET WITH NO
SIGNIFICANT WEATHER AND/OR OBSTRUCTIONS TO VISIBILITY.


SDZ001>005-009-010-012>017-221600-
NORTHWEST AND NORTH CENTRAL SOUTH DAKOTA

CITY           SKY/WX    TMP DP  RH WIND       PRES   REMARKS
BUFFALO          N/A     20  16  84 NW9       29.72R WCI   9
FAITH            N/A     19  16  88 W17       29.78R WCI   4
MOBRIDGE       CLOUDY    15  11  83 S3        29.77R
$$

SDZ012>016-024>037-041>051-057-063-072>074-221600-
SOUTHWEST AND SOUTH CENTRAL SOUTH DAKOTA

CITY           SKY/WX    TMP DP  RH WIND       PRES   REMARKS
RAPID CTY ARPT CLEAR     28  19  69 NW10      29.80R WCI  19
PIERRE         CLOUDY    21  17  84 W9        29.81R WCI  11
CUSTER         CLOUDY    28  15  58 NW6       29.77R WCI  22
ELLSWORTH AFB  CLEAR     25  19  80 CALM      29.80R
PHILIP         CLEAR     22  20  92 W9        29.83R WCI  12
PINE RIDGE     CLEAR     19  18  95 W3        29.84R
SPEARFISH      FAIR      28  19  69 NW3       29.81R
WINNER         FAIR      27  23  85 W9        29.81R WCI  18
$$

SDZ004>011-016>023-039-040-221600-
NORTHEAST SOUTH DAKOTA

CITY           SKY/WX    TMP DP  RH WIND       PRES   REMARKS
ABERDEEN       CLOUDY    29  24  82 NW14      29.77R WCI  18
WATERTOWN      CLOUDY    30  29  96 NW7       29.73R FOG     WCI  23
BROOKINGS      CLOUDY    31  30  96 NW9       29.73R FOG     WCI  23
SISSETON         N/A     32  31  96 NW9       29.73R WCI  24
$$

SDZ017-020-022-023-036>040-048>070-221600-
SOUTHEAST SOUTH DAKOTA

CITY           SKY/WX    TMP DP  RH WIND       PRES   REMARKS
SIOUX FALLS    CLOUDY    33  31  92 NW13      29.75R WCI  24
HURON          CLEAR     21  19  92 NW10      29.80R WCI  10
CHAMBERLAIN    CLEAR     25  24  98 W8        29.81R WCI  16
MITCHELL       CLEAR     28  26  92 NW10      29.80R WCI  19
YANKTON        PTCLDY    28  27  93 NW9       29.78R WCI  20
$$

ABBREVIATIONS USED IN REMARKS
   TC - TEMPERATURE IN CELSIUS
  WCI - WIND CHILL INDEX
   HX - HEAT INDEX
  VSB - VISIBILITY





USA.gov is the U.S. government's official web portal to all federal, state and local government web resources and services.